SCP
0 0 0 0 0 0 0 0 -0 0 0 0 0 0 0 0 0 0 0 0 0 0 0 0 -0 -0 -0 -0 -0 -0 -0 -0 -0 -0 -0 -0 -0 -0 -0 -0 -0 -0 -0 -0 -0 -0 -0 -0 -0
0 0 0 0 0 0 0 0 -0 0 0 0 0 0 0 0 0 0 0 0 0 0 0 0 0 0 -0 -0 -0 -0 -0 -0 -0 -0 -0 -0 -0 -0 -0 -0 -0 -0 -0 -0 -0 -0 -0 -0 -0
0 0 0 0 0 0 0 0 -0 -0 0 0 0 0 0 0 0 0 0 0 0 0 0 0 0 0 -0 -0 0 0 0 0 0 0 -0 -0 -0 -0 -0 -0 -0 -0 -0 -0 -0 -0 -0 -0 -0
0 0 0 0 0 0 0 0 0 0 0 0 0 0 0 0 0 0 0 0 0 0 0 0 0 0 0 0 0 0 -0 0 -0 -0 -0 -0 -0 -0 -0 -0 -0 -0 -0 -0 -0 -0 -0 -0 -0
0 0 0 0 0 0 0 -0 0 0 0 0 0 0 1 1 0 0 0 0 0 0 0 0 0 0 0 0 0 0 -0 -0 -0 -0 -0 -0 -0 -0 -0 -0 -0 -0 -0 -0 -0 -0 -0 -0 -0
0 0 0 0 0 0 0 -0 -0 0 -0 0 0 0 0 0 0 1 0 0 0 0 0 0 0 0 0 0 0 0 0 -0 -0 -0 -0 -0 -0 -0 -0 -0 -0 -0 -0 -0 -0 -0 -0 -0 0
0 0 0 0 0 0 0 -0 0 0 0 0 0 0 0 0 0 0 0 0 0 0 0 0 0 0 0 0 0 0 0 0 -0 -0 -0 -0 0 0 0 0 -0 0 -0 -0 -0 -0 0 0 0
0 0 0 0 0 0 0 -0 0 0 0 0 0 0 0 0 1 1 1 0 0 0 0 0 0 0 0 0 0 0 0 0 0 0 -0 -0 -0 0 0 0 0 0 -0 -0 -0 0 0 0 0
0 0 0 0 0 0 0 0 0 0 0 0 1 0 0 1 1 1 0 0 0 0 0 0 0 0 0 0 0 0 0 0 0 0 0 0 0 0 0 -0 -0 -0 -0 -0 0 0 0 0 0
0 0 0 0 0 0 0 0 0 0 0 1 1 1 0 0 1 1 0 0 0 0 0 0 0 0 0 0 0 0 0 0 0 0 0 0 0 0 0 0 -0 0 0 0 0 0 0 0 0
0 0 0 0 0 0 0 0 0 0 0 0 1 0 0 0 0 0 0 0 0 0 0 0 0 0 0 0 0 0 0 0 0 0 -0 0 0 0 0 0 0 0 0 0 0 0 0 0 0
0 0 0 0 0 0 0 0 0 0 0 0 0 0 0 0 0 0 0 0 0 0 0 0 0 0 0 0 0 0 0 0 0 -0 0 0 0 0 0 0 0 0 0 0 0 0 0 0 0
0 0 0 -0 0 0 0 0 0 0 0 0 0 1 0 0 0 0 0 1 0 0 0 0 0 0 0 0 0 0 0 0 0 0 0 0 0 0 0 -0 0 -0 0 0 0 0 0 0 0
0 0 0 0 -0 0 0 0 0 0 0 0 1 0 0 0 0 0 0 0 0 0 0 0 0 0 0 0 0 0 0 0 0 0 0 0 0 0 -0 0 0 -0 0 0 0 0 0 0 0
0 0 0 -0 0 0 0 0 0 0 0 0 0 0 0 0 0 0 0 0 1 0 0 0 0 0 0 0 0 0 0 0 0 0 0 0 0 0 0 0 0 0 0 0 0 0 0 0 0
0 -0 0 0 0 0 0 0 0 0 0 0 0 0 0 0 0 0 0 0 0 0 0 0 0 0 0 0 0 0 0 0 0 0 0 0 0 0 0 0 0 0 0 0 0 0 0 0 0
-0 0 0 0 0 0 0 -0 0 0 0 0 0 0 0 0 0 0 0 0 0 0 0 0 0 0 0 0 0 0 0 0 0 0 0 0 0 0 0 0 0 0 0 0 0 0 0 0 0
0 -0 0 0 0 0 0 0 0 0 0 0 0 0 0 0 0 0 0 0 0 0 0 0 0 0 0 0 0 0 0 0 0 0 0 0 0 0 0 0 0 0 0 0 0 0 0 0 0
0 0 0 0 0 0 0 0 0 0 0 0 0 0 0 0 0 0 0 0 0 0 0 0 0 0 0 0 0 0 0 0 0 0 0 0 0 0 0 0 0 0 0 0 0 0 0 0 0
0 0 0 0 0 0 0 0 0 0 0 0 0 0 0 0 0 0 0 0 0 0 0 0 0 0 0 0 0 0 0 0 0 0 0 0 0 0 0 0 0 0 0 0 0 0 0 0 0
-0 0 0 0 0 0 0 0 0 0 0 0 0 0 0 0 0 0 0 0 0 0 0 0 0 0 0 0 0 0 0 0 0 0 0 0 0 0 0 0 0 0 0 0 0 0 0 0 0
0 0 0 0 0 0 0 0 0 0 0 0 0 0 0 0 0 0 0 0 0 0 0 0 0 0 0 0 0 0 0 0 0 0 0 0 0 0 0 0 0 0 0 0 0 0 0 0 0
-0 -0 0 0 0 0 0 0 0 0 0 0 0 0 0 0 0 0 0 0 0 0 0 0 0 0 0 0 0 0 0 0 0 0 0 0 0 0 0 0 0 0 0 0 0 0 0 0 0
0 0 0 0 0 0 0 0 0 0 0 0 0 0 0 0 0 0 0 0 0 0 0 0 0 0 0 0 0 0 0 0 0 0 0 0 0 0 0 0 0 0 0 0 0 0 0 0 0
0 0 0 0 0 0 0 0 0 0 0 0 0 0 0 0 0 0 0 0 0 0 0 0 0 0 0 0 0 0 0 0 0 0 0 0 0 0 0 0 0 0 0 0 0 0 0 0 0
0 0 0 0 0 0 0 0 0 0 0 0 0 0 0 0 0 0 0 0 0 0 0 0 0 0 0 0 0 0 0 0 0 0 0 0 0 0 0 0 0 0 0 0 0 0 0 0 0
0 0 0 0 0 0 0 0 0 0 0 0 0 0 0 0 0 0 0 0 0 0 0 0 0 0 0 0 0 0 0 0 0 0 0 0 0 0 0 0 0 0 0 0 0 0 0 0 0
0 0 0 0 0 0 0 0 0 0 0 0 0 0 0 0 0 0 0 0 0 0 0 0 0 0 0 0 0 0 0 0 0 0 0 0 0 0 0 0 0 0 0 0 0 0 0 0 0
0 0 0 0 0 0 0 0 0 0 0 0 0 0 0 0 0 0 0 0 0 0 0 0 0 0 0 0 0 0 0 0 0 0 0 0 0 0 0 0 0 0 0 0 0 0 0 0 0
0 0 0 0 0 0 0 0 0 0 0 0 0 0 0 0 0 0 0 0 0 0 0 0 0 0 0 0 0 0 0 0 0 0 0 0 0 0 0 0 0 0 0 0 0 0 0 0 0
Wind_Speed_500mb
16 10 11 11 6 5 7 14 24 22 13 32 54 10 1 14 4 9 29 41 29 50 57 51 45 39 35 34 32 29 33 34 34 38 41 35 32 33 36 33 26 23 21 20 21 27 30 31 33
11 13 15 7 6 7 11 12 29 37 45 22 9 13 8 5 9 36 49 31 29 49 60 52 45 39 37 36 34 35 40 39 37 43 40 40 42 45 41 32 23 18 12 13 22 26 30 32 33
28 10 7 4 8 17 8 20 30 48 43 3 8 6 9 7 23 56 25 39 37 52 58 51 45 40 38 37 37 41 44 41 37 42 38 37 37 31 23 17 19 19 18 19 21 26 28 29 30
11 15 11 4 20 14 29 18 32 25 33 22 19 14 20 13 46 36 35 43 39 61 58 51 43 41 41 40 42 43 46 40 39 41 36 32 29 23 19 14 11 9 16 20 21 22 25 25 26
13 7 8 10 26 13 18 62 40 26 9 34 23 10 17 32 21 31 46 46 45 64 58 50 43 42 44 44 43 44 45 44 40 38 33 30 26 21 14 9 7 9 16 21 21 22 23 23 23
13 9 8 34 28 17 28 55 31 37 11 33 19 26 17 20 25 40 46 45 41 61 59 51 45 45 48 48 43 44 46 43 39 36 30 23 19 17 14 14 18 12 21 22 20 20 20 20 20
12 7 28 23 26 34 25 62 25 35 14 11 16 13 20 30 31 42 45 44 43 52 58 53 50 51 51 50 47 45 43 41 39 32 25 19 15 15 18 23 19 17 26 24 21 19 17 16 15
19 7 27 29 26 43 43 39 43 33 18 14 17 9 8 39 44 44 49 42 46 51 55 55 55 53 54 51 47 45 43 40 35 26 21 17 16 18 22 20 14 23 24 22 19 16 14 13 13
37 16 32 41 41 28 39 6 36 44 24 8 17 25 28 51 56 56 52 52 55 55 56 56 58 55 52 51 48 44 44 40 28 23 17 14 14 16 19 17 18 23 21 19 16 13 10 9 10
25 26 48 9 28 25 46 24 32 16 26 6 30 39 42 47 62 60 67 63 59 60 62 59 59 58 54 53 52 47 43 33 27 22 18 17 17 17 19 20 19 20 18 15 12 9 7 5 5
23 38 18 43 42 42 62 29 24 12 15 22 39 46 47 49 34 59 66 69 68 67 66 64 62 59 56 53 51 46 39 32 27 22 21 19 21 17 16 14 16 17 16 14 11 8 5 2 3
35 56 52 20 48 33 16 20 17 16 33 14 37 54 57 55 57 65 62 62 58 64 63 63 63 59 54 51 48 44 40 34 27 25 23 21 15 11 9 13 15 15 14 12 9 5 5 4 2
42 44 53 60 42 46 42 29 17 26 48 22 24 56 56 63 74 81 73 62 60 64 58 63 63 59 52 49 48 44 40 33 26 28 26 24 18 14 19 15 16 16 12 7 5 3 4 3 4
22 30 51 56 52 41 23 14 13 42 53 17 36 44 50 60 71 72 73 66 64 60 56 60 60 54 50 46 46 42 38 28 26 28 28 27 21 21 20 16 9 10 9 6 5 1 4 3 5
50 35 41 55 58 32 29 22 26 52 41 20 36 36 37 48 56 63 73 75 68 68 63 61 66 59 53 49 44 41 37 32 23 23 23 26 22 23 25 21 17 14 11 10 6 3 2 3 4
25 26 24 23 44 36 44 40 32 54 30 30 30 31 30 27 39 49 58 70 75 68 68 68 73 68 58 49 46 44 41 32 23 23 25 26 22 21 21 17 19 16 12 9 8 2 1 5 7
24 15 48 22 37 24 38 22 29 54 35 35 28 29 34 30 27 35 54 59 70 71 75 73 71 68 63 55 47 43 40 35 23 21 25 29 25 22 20 19 14 8 7 6 6 4 2 8 4
32 33 26 27 37 28 45 14 24 56 36 35 26 17 35 36 24 37 57 65 62 65 67 73 70 64 55 46 54 50 34 32 30 30 26 25 28 24 16 18 17 13 9 8 7 4 1 1 4
36 32 29 25 21 39 28 18 21 35 11 7 22 19 43 41 21 38 62 59 55 50 54 57 78 75 60 48 52 54 46 43 43 36 31 29 28 28 23 20 19 16 9 7 6 5 5 5 6
34 19 20 7 23 44 37 23 13 18 19 16 20 29 28 38 34 17 66 65 54 57 52 46 56 63 60 52 44 50 50 44 42 36 34 32 33 31 30 26 22 20 18 13 12 11 9 8 9
22 24 11 10 19 11 42 19 17 12 22 39 38 32 30 29 27 26 46 65 70 64 60 60 54 50 54 54 46 44 46 45 41 42 41 40 36 33 32 27 22 23 22 18 16 17 15 14 16
28 33 13 16 11 18 10 11 17 16 11 17 30 28 25 24 26 17 33 35 50 57 50 61 53 42 43 56 57 49 45 44 45 45 44 44 42 34 26 24 22 24 24 23 25 22 22 26 31
13 29 28 23 6 7 5 11 11 24 15 19 19 26 27 21 23 25 28 20 30 46 46 44 52 44 43 48 59 58 55 48 41 36 35 36 34 32 32 30 29 30 31 32 33 32 35 34 37
11 19 18 14 8 3 11 8 13 17 13 16 20 26 22 24 26 20 24 36 20 35 37 34 38 38 39 37 37 36 38 46 50 36 32 30 34 38 33 24 29 35 37 37 34 35 36 38 40
13 2 6 7 5 6 6 15 6 11 12 23 26 31 31 21 18 21 10 17 32 30 23 31 31 31 28 32 31 36 37 36 43 39 34 30 36 33 21 25 30 36 38 35 43 44 40 41 40
4 3 5 7 7 3 5 8 6 10 18 35 35 36 35 29 22 23 14 13 8 23 29 22 25 20 24 23 23 30 35 28 19 23 21 20 29 31 48 37 35 37 38 38 42 48 41 40 34
4 3 7 12 4 8 5 8 8 11 15 21 25 27 32 29 27 28 27 22 19 7 19 22 24 30 35 29 25 23 24 29 23 22 19 21 27 27 41 38 42 44 35 35 33 34 29 35 35
10 7 5 8 6 7 7 6 5 7 12 15 18 26 28 25 27 32 35 31 27 21 16 10 19 23 29 30 29 24 17 12 13 12 12 12 23 27 32 41 41 39 31 28 27 24 29 32 30
11 7 9 9 3 7 8 4 9 6 13 16 20 21 28 28 24 26 31 30 29 24 25 22 12 9 8 14 16 16 14 11 10 15 20 16 13 14 18 20 22 23 24 21 18 23 24 23 21
7 11 8 7 9 5 6 5 7 12 17 29 29 23 20 23 24 21 22 20 19 20 20 17 16 14 10 10 4 6 6 7 8 12 16 18 16 18 19 18 17 17 13 12 14 15 14 10 8
Wind_Direction_500mb
311 262 171 177 82 92 224 231 260 287 304 259 235 144 338 67 59 172 138 176 174 169 173 169 167 167 161 159 155 147 139 135 131 129 130 129 136 145 140 136 123 108 83 63 81 101 102 101 101
310 289 230 231 131 206 241 235 242 254 252 286 298 192 295 81 111 142 156 201 174 171 170 167 165 165 160 157 155 147 143 137 131 133 131 130 128 133 133 127 121 104 85 81 97 103 103 101 103
241 280 258 159 194 217 240 213 240 253 266 165 153 87 87 82 138 154 183 182 176 174 169 165 164 164 158 156 155 150 149 140 131 133 138 141 135 135 136 144 95 92 102 108 108 105 105 103 103
251 236 240 230 243 238 244 260 234 271 227 200 152 89 92 128 150 179 185 182 172 171 167 164 164 162 158 157 156 154 155 147 136 128 137 141 151 144 133 117 109 108 112 116 117 109 105 103 99
220 165 222 234 238 264 259 250 259 280 196 211 170 138 101 146 176 199 190 181 172 169 166 163 164 162 159 158 156 156 158 152 144 134 134 134 136 140 145 160 173 151 145 132 119 110 105 100 97
195 159 206 229 229 259 264 262 269 273 278 199 183 126 136 135 165 186 188 176 181 165 164 163 164 162 160 158 155 157 157 158 151 143 143 145 152 161 162 150 129 144 149 133 124 112 104 99 95
219 183 230 248 220 230 247 263 266 238 263 260 173 114 152 147 181 183 179 175 169 168 165 163 163 162 160 159 159 159 162 161 156 152 154 163 178 182 167 150 151 147 135 134 129 119 106 95 89
217 229 231 221 211 228 235 272 265 259 256 209 167 128 201 159 190 177 183 185 178 168 168 164 163 164 162 162 164 165 168 163 162 166 171 180 182 175 179 187 153 145 133 131 126 118 110 101 89
217 220 235 223 215 221 238 302 294 258 247 148 120 147 187 168 163 168 182 185 179 169 173 168 166 166 167 166 166 169 167 167 174 177 177 180 179 173 164 162 135 135 135 132 127 119 114 109 96
243 229 228 212 227 219 241 235 294 339 323 96 120 136 143 151 169 179 188 187 186 175 175 172 169 169 168 167 165 167 171 178 183 181 178 170 174 165 159 153 144 142 137 134 132 131 132 117 131
238 248 254 240 238 220 230 222 246 318 316 196 172 168 162 170 167 186 189 189 187 176 175 175 172 173 175 174 172 175 177 179 175 175 174 170 173 166 139 146 154 151 150 146 140 135 109 83 43
251 253 246 271 220 201 223 238 236 243 250 290 218 194 173 189 198 207 187 188 180 172 178 174 174 174 180 182 181 179 179 177 176 176 175 174 179 172 157 161 167 163 161 154 143 126 50 47 108
258 258 259 248 245 231 222 239 214 247 240 266 203 193 182 180 177 187 194 194 185 177 179 177 174 176 180 186 185 183 182 180 177 180 183 188 197 189 165 151 142 157 159 142 90 21 23 52 55
238 242 276 249 241 219 192 218 197 236 264 211 175 189 184 180 183 187 193 192 189 185 176 177 174 179 185 185 188 187 186 194 182 184 185 196 191 177 168 177 159 143 152 171 196 276 5 26 52
251 256 271 266 242 218 187 245 233 233 255 214 172 185 195 194 188 188 192 193 194 188 177 177 175 182 187 189 189 187 186 192 194 186 183 177 170 176 180 191 195 194 209 204 208 154 149 74 33
245 232 254 241 215 216 182 233 232 241 267 256 175 173 185 190 198 199 194 194 196 194 183 179 184 187 191 189 188 187 188 197 207 194 186 182 178 183 182 179 185 195 191 207 171 159 287 330 332
223 238 232 280 200 190 190 205 208 225 263 246 198 160 178 181 190 205 193 196 197 196 184 178 184 187 192 196 186 190 191 195 208 206 199 193 191 187 190 177 177 191 206 180 195 207 294 317 337
200 228 239 221 196 190 188 146 163 185 240 245 200 125 181 176 174 207 202 194 194 198 203 197 185 185 189 186 183 183 180 189 202 207 204 207 202 191 189 190 196 196 199 198 215 228 108 269 345
187 238 210 248 223 199 180 140 154 163 116 149 185 140 158 146 181 175 196 191 190 195 193 198 200 198 195 195 186 188 183 197 207 205 211 208 207 202 203 209 201 201 201 217 203 215 233 267 306
240 255 212 286 217 185 172 171 138 118 104 75 124 131 139 132 164 211 160 176 180 180 186 197 197 191 186 190 188 193 195 199 213 213 214 219 214 210 210 212 218 214 208 218 222 221 234 246 268
228 227 203 188 140 170 156 180 146 95 107 97 95 114 129 133 155 167 146 152 167 178 184 190 191 193 183 191 193 195 199 209 208 214 223 222 225 219 214 212 222 221 218 230 242 240 239 251 262
219 208 217 175 186 153 191 149 147 151 135 117 114 116 121 126 141 125 137 143 153 162 170 185 187 191 186 192 200 203 205 209 214 221 227 231 226 219 220 218 221 228 227 228 237 244 250 252 257
252 184 204 172 89 104 141 130 130 140 147 150 124 126 131 145 151 131 127 141 130 152 166 167 175 180 191 198 200 209 211 216 217 226 227 223 223 218 216 217 220 231 233 237 242 251 257 258 260
136 162 170 106 123 150 157 130 152 172 161 126 109 120 121 132 157 156 143 146 145 141 156 154 167 176 188 203 209 212 212 217 216 217 213 203 209 221 218 226 242 246 250 250 251 258 265 269 268
145 196 92 67 46 57 143 59 57 34 108 140 133 129 121 120 134 152 174 150 149 151 134 142 156 169 180 198 205 201 205 206 210 224 227 220 206 206 212 271 253 250 246 254 250 265 270 274 271
146 84 81 111 133 95 281 95 87 80 66 109 105 115 118 110 104 116 120 118 142 147 168 156 149 162 173 182 194 200 208 208 225 244 245 234 231 228 242 236 251 262 270 268 262 262 268 259 264
134 53 224 105 45 81 95 60 75 108 87 117 125 119 111 113 117 105 103 91 78 130 174 180 171 191 189 193 200 204 222 227 247 258 262 254 261 250 230 238 245 257 260 260 247 247 252 264 266
118 148 115 30 88 90 67 78 99 163 145 146 163 130 130 133 125 116 110 101 85 85 82 104 145 165 178 176 176 170 176 191 221 222 229 201 205 218 234 236 233 238 228 240 240 246 269 270 267
9 35 45 108 88 129 123 60 349 79 157 155 157 151 164 158 151 132 122 120 115 99 91 77 60 73 126 139 135 154 162 223 245 260 243 245 255 244 234 232 233 228 229 235 266 267 270 265 268
9 22 49 94 308 37 76 82 30 75 110 114 107 126 169 179 178 169 151 144 135 134 120 103 90 77 66 58 105 152 164 221 247 230 252 251 248 245 245 238 220 215 233 266 274 256 232 222 221
Wind_Speed_850mb
16 10 11 11 6 5 7 14 24 22 13 32 54 10 1 14 4 9 29 41 29 50 57 51 45 39 35 34 32 29 33 34 34 38 41 35 32 33 36 33 26 23 21 20 21 27 30 31 33
11 13 15 7 6 7 11 12 29 37 45 22 9 13 8 5 9 36 49 31 29 49 60 52 45 39 37 36 34 35 40 39 37 43 40 40 42 45 41 32 23 18 12 13 22 26 30 32 33
28 10 7 4 8 17 8 20 30 48 43 3 8 6 9 7 23 56 25 39 37 52 58 51 45 40 38 37 37 41 44 41 37 42 38 37 37 31 23 17 19 19 18 19 21 26 28 29 30
11 15 11 4 20 14 29 18 32 25 33 22 19 14 20 13 46 36 35 43 39 61 58 51 43 41 41 40 42 43 46 40 39 41 36 32 29 23 19 14 11 9 16 20 21 22 25 25 26
13 7 8 10 26 13 18 62 40 26 9 34 23 10 17 32 21 31 46 46 45 64 58 50 43 42 44 44 43 44 45 44 40 38 33 30 26 21 14 9 7 9 16 21 21 22 23 23 23
13 9 8 34 28 17 28 55 31 37 11 33 19 26 17 20 25 40 46 45 41 61 59 51 45 45 48 48 43 44 46 43 39 36 30 23 19 17 14 14 18 12 21 22 20 20 20 20 20
12 7 28 23 26 34 25 62 25 35 14 11 16 13 20 30 31 42 45 44 43 52 58 53 50 51 51 50 47 45 43 41 39 32 25 19 15 15 18 23 19 17 26 24 21 19 17 16 15
19 7 27 29 26 43 43 39 43 33 18 14 17 9 8 39 44 44 49 42 46 51 55 55 55 53 54 51 47 45 43 40 35 26 21 17 16 18 22 20 14 23 24 22 19 16 14 13 13
37 16 32 41 41 28 39 6 36 44 24 8 17 25 28 51 56 56 52 52 55 55 56 56 58 55 52 51 48 44 44 40 28 23 17 14 14 16 19 17 18 23 21 19 16 13 10 9 10
25 26 48 9 28 25 46 24 32 16 26 6 30 39 42 47 62 60 67 63 59 60 62 59 59 58 54 53 52 47 43 33 27 22 18 17 17 17 19 20 19 20 18 15 12 9 7 5 5
23 38 18 43 42 42 62 29 24 12 15 22 39 46 47 49 34 59 66 69 68 67 66 64 62 59 56 53 51 46 39 32 27 22 21 19 21 17 16 14 16 17 16 14 11 8 5 2 3
35 56 52 20 48 33 16 20 17 16 33 14 37 54 57 55 57 65 62 62 58 64 63 63 63 59 54 51 48 44 40 34 27 25 23 21 15 11 9 13 15 15 14 12 9 5 5 4 2
42 44 53 60 42 46 42 29 17 26 48 22 24 56 56 63 74 81 73 62 60 64 58 63 63 59 52 49 48 44 40 33 26 28 26 24 18 14 19 15 16 16 12 7 5 3 4 3 4
22 30 51 56 52 41 23 14 13 42 53 17 36 44 50 60 71 72 73 66 64 60 56 60 60 54 50 46 46 42 38 28 26 28 28 27 21 21 20 16 9 10 9 6 5 1 4 3 5
50 35 41 55 58 32 29 22 26 52 41 20 36 36 37 48 56 63 73 75 68 68 63 61 66 59 53 49 44 41 37 32 23 23 23 26 22 23 25 21 17 14 11 10 6 3 2 3 4
25 26 24 23 44 36 44 40 32 54 30 30 30 31 30 27 39 49 58 70 75 68 68 68 73 68 58 49 46 44 41 32 23 23 25 26 22 21 21 17 19 16 12 9 8 2 1 5 7
24 15 48 22 37 24 38 22 29 54 35 35 28 29 34 30 27 35 54 59 70 71 75 73 71 68 63 55 47 43 40 35 23 21 25 29 25 22 20 19 14 8 7 6 6 4 2 8 4
32 33 26 27 37 28 45 14 24 56 36 35 26 17 35 36 24 37 57 65 62 65 67 73 70 64 55 46 54 50 34 32 30 30 26 25 28 24 16 18 17 13 9 8 7 4 1 1 4
36 32 29 25 21 39 28 18 21 35 11 7 22 19 43 41 21 38 62 59 55 50 54 57 78 75 60 48 52 54 46 43 43 36 31 29 28 28 23 20 19 16 9 7 6 5 5 5 6
34 19 20 7 23 44 37 23 13 18 19 16 20 29 28 38 34 17 66 65 54 57 52 46 56 63 60 52 44 50 50 44 42 36 34 32 33 31 30 26 22 20 18 13 12 11 9 8 9
22 24 11 10 19 11 42 19 17 12 22 39 38 32 30 29 27 26 46 65 70 64 60 60 54 50 54 54 46 44 46 45 41 42 41 40 36 33 32 27 22 23 22 18 16 17 15 14 16
28 33 13 16 11 18 10 11 17 16 11 17 30 28 25 24 26 17 33 35 50 57 50 61 53 42 43 56 57 49 45 44 45 45 44 44 42 34 26 24 22 24 24 23 25 22 22 26 31
13 29 28 23 6 7 5 11 11 24 15 19 19 26 27 21 23 25 28 20 30 46 46 44 52 44 43 48 59 58 55 48 41 36 35 36 34 32 32 30 29 30 31 32 33 32 35 34 37
11 19 18 14 8 3 11 8 13 17 13 16 20 26 22 24 26 20 24 36 20 35 37 34 38 38 39 37 37 36 38 46 50 36 32 30 34 38 33 24 29 35 37 37 34 35 36 38 40
13 2 6 7 5 6 6 15 6 11 12 23 26 31 31 21 18 21 10 17 32 30 23 31 31 31 28 32 31 36 37 36 43 39 34 30 36 33 21 25 30 36 38 35 43 44 40 41 40
4 3 5 7 7 3 5 8 6 10 18 35 35 36 35 29 22 23 14 13 8 23 29 22 25 20 24 23 23 30 35 28 19 23 21 20 29 31 48 37 35 37 38 38 42 48 41 40 34
4 3 7 12 4 8 5 8 8 11 15 21 25 27 32 29 27 28 27 22 19 7 19 22 24 30 35 29 25 23 24 29 23 22 19 21 27 27 41 38 42 44 35 35 33 34 29 35 35
10 7 5 8 6 7 7 6 5 7 12 15 18 26 28 25 27 32 35 31 27 21 16 10 19 23 29 30 29 24 17 12 13 12 12 12 23 27 32 41 41 39 31 28 27 24 29 32 30
11 7 9 9 3 7 8 4 9 6 13 16 20 21 28 28 24 26 31 30 29 24 25 22 12 9 8 14 16 16 14 11 10 15 20 16 13 14 18 20 22 23 24 21 18 23 24 23 21
7 11 8 7 9 5 6 5 7 12 17 29 29 23 20 23 24 21 22 20 19 20 20 17 16 14 10 10 4 6 6 7 8 12 16 18 16 18 19 18 17 17 13 12 14 15 14 10 8
Wind_Direction_850mb
311 262 171 177 82 92 224 231 260 287 304 259 235 144 338 67 59 172 138 176 174 169 173 169 167 167 161 159 155 147 139 135 131 129 130 129 136 145 140 136 123 108 83 63 81 101 102 101 101
310 289 230 231 131 206 241 235 242 254 252 286 298 192 295 81 111 142 156 201 174 171 170 167 165 165 160 157 155 147 143 137 131 133 131 130 128 133 133 127 121 104 85 81 97 103 103 101 103
241 280 258 159 194 217 240 213 240 253 266 165 153 87 87 82 138 154 183 182 176 174 169 165 164 164 158 156 155 150 149 140 131 133 138 141 135 135 136 144 95 92 102 108 108 105 105 103 103
251 236 240 230 243 238 244 260 234 271 227 200 152 89 92 128 150 179 185 182 172 171 167 164 164 162 158 157 156 154 155 147 136 128 137 141 151 144 133 117 109 108 112 116 117 109 105 103 99
220 165 222 234 238 264 259 250 259 280 196 211 170 138 101 146 176 199 190 181 172 169 166 163 164 162 159 158 156 156 158 152 144 134 134 134 136 140 145 160 173 151 145 132 119 110 105 100 97
195 159 206 229 229 259 264 262 269 273 278 199 183 126 136 135 165 186 188 176 181 165 164 163 164 162 160 158 155 157 157 158 151 143 143 145 152 161 162 150 129 144 149 133 124 112 104 99 95
219 183 230 248 220 230 247 263 266 238 263 260 173 114 152 147 181 183 179 175 169 168 165 163 163 162 160 159 159 159 162 161 156 152 154 163 178 182 167 150 151 147 135 134 129 119 106 95 89
217 229 231 221 211 228 235 272 265 259 256 209 167 128 201 159 190 177 183 185 178 168 168 164 163 164 162 162 164 165 168 163 162 166 171 180 182 175 179 187 153 145 133 131 126 118 110 101 89
217 220 235 223 215 221 238 302 294 258 247 148 120 147 187 168 163 168 182 185 179 169 173 168 166 166 167 166 166 169 167 167 174 177 177 180 179 173 164 162 135 135 135 132 127 119 114 109 96
243 229 228 212 227 219 241 235 294 339 323 96 120 136 143 151 169 179 188 187 186 175 175 172 169 169 168 167 165 167 171 178 183 181 178 170 174 165 159 153 144 142 137 134 132 131 132 117 131
238 248 254 240 238 220 230 222 246 318 316 196 172 168 162 170 167 186 189 189 187 176 175 175 172 173 175 174 172 175 177 179 175 175 174 170 173 166 139 146 154 151 150 146 140 135 109 83 43
251 253 246 271 220 201 223 238 236 243 250 290 218 194 173 189 198 207 187 188 180 172 178 174 174 174 180 182 181 179 179 177 176 176 175 174 179 172 157 161 167 163 161 154 143 126 50 47 108
258 258 259 248 245 231 222 239 214 247 240 266 203 193 182 180 177 187 194 194 185 177 179 177 174 176 180 186 185 183 182 180 177 180 183 188 197 189 165 151 142 157 159 142 90 21 23 52 55
238 242 276 249 241 219 192 218 197 236 264 211 175 189 184 180 183 187 193 192 189 185 176 177 174 179 185 185 188 187 186 194 182 184 185 196 191 177 168 177 159 143 152 171 196 276 5 26 52
251 256 271 266 242 218 187 245 233 233 255 214 172 185 195 194 188 188 192 193 194 188 177 177 175 182 187 189 189 187 186 192 194 186 183 177 170 176 180 191 195 194 209 204 208 154 149 74 33
245 232 254 241 215 216 182 233 232 241 267 256 175 173 185 190 198 199 194 194 196 194 183 179 184 187 191 189 188 187 188 197 207 194 186 182 178 183 182 179 185 195 191 207 171 159 287 330 332
223 238 232 280 200 190 190 205 208 225 263 246 198 160 178 181 190 205 193 196 197 196 184 178 184 187 192 196 186 190 191 195 208 206 199 193 191 187 190 177 177 191 206 180 195 207 294 317 337
200 228 239 221 196 190 188 146 163 185 240 245 200 125 181 176 174 207 202 194 194 198 203 197 185 185 189 186 183 183 180 189 202 207 204 207 202 191 189 190 196 196 199 198 215 228 108 269 345
187 238 210 248 223 199 180 140 154 163 116 149 185 140 158 146 181 175 196 191 190 195 193 198 200 198 195 195 186 188 183 197 207 205 211 208 207 202 203 209 201 201 201 217 203 215 233 267 306
240 255 212 286 217 185 172 171 138 118 104 75 124 131 139 132 164 211 160 176 180 180 186 197 197 191 186 190 188 193 195 199 213 213 214 219 214 210 210 212 218 214 208 218 222 221 234 246 268
228 227 203 188 140 170 156 180 146 95 107 97 95 114 129 133 155 167 146 152 167 178 184 190 191 193 183 191 193 195 199 209 208 214 223 222 225 219 214 212 222 221 218 230 242 240 239 251 262
219 208 217 175 186 153 191 149 147 151 135 117 114 116 121 126 141 125 137 143 153 162 170 185 187 191 186 192 200 203 205 209 214 221 227 231 226 219 220 218 221 228 227 228 237 244 250 252 257
252 184 204 172 89 104 141 130 130 140 147 150 124 126 131 145 151 131 127 141 130 152 166 167 175 180 191 198 200 209 211 216 217 226 227 223 223 218 216 217 220 231 233 237 242 251 257 258 260
136 162 170 106 123 150 157 130 152 172 161 126 109 120 121 132 157 156 143 146 145 141 156 154 167 176 188 203 209 212 212 217 216 217 213 203 209 221 218 226 242 246 250 250 251 258 265 269 268
145 196 92 67 46 57 143 59 57 34 108 140 133 129 121 120 134 152 174 150 149 151 134 142 156 169 180 198 205 201 205 206 210 224 227 220 206 206 212 271 253 250 246 254 250 265 270 274 271
146 84 81 111 133 95 281 95 87 80 66 109 105 115 118 110 104 116 120 118 142 147 168 156 149 162 173 182 194 200 208 208 225 244 245 234 231 228 242 236 251 262 270 268 262 262 268 259 264
134 53 224 105 45 81 95 60 75 108 87 117 125 119 111 113 117 105 103 91 78 130 174 180 171 191 189 193 200 204 222 227 247 258 262 254 261 250 230 238 245 257 260 260 247 247 252 264 266
118 148 115 30 88 90 67 78 99 163 145 146 163 130 130 133 125 116 110 101 85 85 82 104 145 165 178 176 176 170 176 191 221 222 229 201 205 218 234 236 233 238 228 240 240 246 269 270 267
9 35 45 108 88 129 123 60 349 79 157 155 157 151 164 158 151 132 122 120 115 99 91 77 60 73 126 139 135 154 162 223 245 260 243 245 255 244 234 232 233 228 229 235 266 267 270 265 268
9 22 49 94 308 37 76 82 30 75 110 114 107 126 169 179 178 169 151 144 135 134 120 103 90 77 66 58 105 152 164 221 247 230 252 251 248 245 245 238 220 215 233 266 274 256 232 222 221